Weather in Selishchi

Russia / Novgorod Oblast     58°53′27″N   31°39′52″E
temp.,
°C
wind,
m/s
gust,
m/s
humid.,
%
clouds,
%
prec.,
mm/h
press.,
hPa
HPBL,
m
6 august, fri
fri600:00+12ne3998100 3.8 1014447
03:00+12nne3799100 4.2 1014317
06:00+12nne3998100 0.0 1013473
09:00+13ne3996100 0.1 1013604
12:00+16nne467381 0.1 1013980
15:00+15ne4579100 0.1 1013791
18:00+15ne3684100 0.1 1012501
21:00+14ne41090100 0.1 1011450
7 august, sat
sat700:00+14ene4129397 0.0 1011505
03:00+13ene41196100 0.0 1009417
06:00+14ene51397100 0.8 1008646
09:00+15ene51398100 6.6 1007676
12:00+15e41199100 13.0 1007618
15:00+17e41098100 17.3 1006775
18:00+19ese379458 0.0 1006469
21:00+17e269933 1.6 1006158
8 august, sun
sun800:00+16sse2699100 0.4 1007171
03:00+14s279729 0.4 1008181
06:00+14s269799 0.0 1009211
09:00+14s259724 0.0 1011274
12:00+18s348396 0.7 1011815
15:00+20ssw347538 1.6 1013941
18:00+20wsw236776 0.0 1013753
21:00+16sse1186100 0.0 101411
9 august, mon
mon900:00+14sse2391100 0.0 101548
03:00+16sse268999 0.0 1015149
06:00+14sse27955 0.0 1015158
09:00+21sse487077 0.0 1014447
12:00+24s5859100 0.0 10141013
15:00+24ssw586158 0.1 10151446
18:00+22sw476792 0.1 1015969
21:00+17ssw26915 0.1 1016135
10 august, tue
tue1000:00+16sw22975 0.0 101744
03:00+15ssw119480 0.0 101827
06:00+15s12970 0.0 101832
09:00+20sw23715 0.0 1019447
12:00+23ssw2354100 0.0 10181429
15:00+25ssw3445100 0.0 10182013
18:00+24ssw225680 0.0 10171054
21:00+17w118199 0.0 101711